Flag for U.S.A. Weather past 2 weeks in Mobile, Alabama, U.S.A.

Now
52 °F

Overcast.


Feels Like: 46 °F
Forecast: 51 / 66 °F
Wind: 18 mph from Northwest

Location: Mobile Downtown Airport

Current Time: Mar 27, 2015 at 7:14:51 AM

Latest Report: Mar 27, 2015 at 6:53 AM


Visibility: 10 mi

Pressure: 29.95 "Hg

Humidity: 80%

Dew point: 46 °F

Location of MobileLocation

Historic Weather in Mobile — Graph

°F

Mobile temperature yesterday

Maximum temperature yesterday: 69 °F (at 2:53 PM)
Minimum temperature yesterday: 62 °F (at 3:53 AM)
Average temperature yesterday: 66 °F

Past Weeks' High & Low Weather Summary

 TemperatureHumidityPressure
High87 °F (Mar 17, 3:53 PM)100% (Mar 12, 10:59 AM)30.27 "Hg (Mar 12, 10:59 AM)
Low54 °F (Mar 27, 5:53 AM)37% (Mar 17, 3:53 PM)29.83 "Hg (Mar 26, 4:53 PM)
Average68 °F80%30.06 "Hg
* Reported Mar 12 5:53 AM — Mar 27 5:53 AM, Mobile, Weather by CustomWeather, © 2015

Note: Actual official high and low records may vary slightly from our data, if they occured in-between our weather recording intervals... More about our weather records

Advertising

Mobile weather history for previous 24 hours

 ConditionsComfort  
Time TempWeatherWind HumidityBarometerVisibility
5:53 AM
Fri, Mar 27
54 °FOvercast.16 mph83%29.90 "Hg10 mi
4:53 AM55 °FMostly cloudy.20 mph80%29.89 "Hg10 mi
3:53 AM57 °FOvercast.18 mph87%29.88 "Hg10 mi
2:53 AM59 °FMostly cloudy.15 mph90%29.87 "Hg10 mi
2:03 AM64 °FLow clouds.8 mph87%29.87 "Hg8 mi
1:53 AM64 °FOvercast.7 mph87%29.86 "Hg10 mi
12:53 AM64 °FMostly cloudy.No wind87%29.86 "Hg10 mi
11:53 PM
Thu, Mar 26
64 °FPassing clouds.7 mph87%29.86 "Hg10 mi
10:53 PM65 °FOvercast.3 mph91%29.87 "Hg10 mi
9:53 PM65 °FPassing clouds.5 mph91%29.86 "Hg10 mi
8:53 PM65 °FPassing clouds.5 mph94%29.86 "Hg10 mi
7:53 PM66 °FOvercast.3 mph93%29.87 "Hg10 mi
6:53 PM68 °FMostly cloudy.3 mph87%29.87 "Hg10 mi
5:53 PM68 °FMostly cloudy.7 mph90%29.84 "Hg10 mi
4:53 PM67 °FBroken clouds.8 mph90%29.83 "Hg10 mi
3:53 PM69 °FLight rain. Overcast.8 mph90%29.84 "Hg9 mi
2:53 PM69 °FScattered clouds.3 mph90%29.87 "Hg10 mi
1:53 PM68 °FRain. Fog.No wind93%29.88 "Hg6 mi
12:53 PM67 °FLight rain. Fog.17 mph90%29.90 "Hg4 mi
12:00 PM68 °FHeavy rain. Fog.6 mph84%29.92 "Hg2 mi
10:53 AM68 °FCloudy.6 mph90%29.97 "Hg10 mi
9:53 AM68 °FPassing clouds.No wind87%29.95 "Hg10 mi
8:53 AM67 °FBroken clouds.3 mph87%29.95 "Hg10 mi
7:53 AM66 °FScattered clouds.3 mph90%29.96 "Hg10 mi
Weather by CustomWeather, © 2015

See weather overviewHow to use our weather pages